Theta_e
333 333 331 330 332 331 331 331 329 330 330 329 326 327 328 328 327 327 325 324 323 324 324 324 326 327 327 329 329 329 329 329 328 327 327 328 328 329 328 324 324 324 324
332 334 331 331 333 331 330 330 328 329 328 328 329 329 329 329 327 327 329 329 328 326 326 327 324 328 328 329 329 329 329 328 327 328 328 327 328 326 323 324 324 324 324
332 332 331 333 331 331 330 330 328 327 328 329 329 329 329 328 326 329 329 328 326 327 327 327 327 329 328 328 326 325 326 327 326 326 325 323 323 323 325 324 325 324 323
331 332 330 331 331 331 330 329 329 328 328 329 329 329 328 327 328 328 329 329 329 329 327 328 326 328 327 327 326 325 327 327 327 324 323 322 323 323 324 324 323 322 321
330 331 330 332 331 331 330 330 330 329 328 330 330 328 326 328 327 328 330 330 330 330 330 329 328 327 326 327 327 328 327 326 324 324 323 323 324 324 324 323 322 321 319
333 333 331 332 331 330 329 329 327 329 328 330 327 327 329 327 328 329 329 330 330 330 330 329 328 327 328 328 328 328 327 325 325 324 324 324 324 324 323 323 323 319 315
331 333 331 333 332 331 330 330 330 330 329 328 329 328 327 326 327 328 329 330 330 330 329 329 328 328 328 329 329 328 326 325 325 324 324 323 324 324 324 322 318 315 314
331 333 331 333 333 332 332 331 329 329 328 329 329 330 325 325 326 328 330 330 330 330 330 329 328 329 328 327 328 327 326 325 325 324 324 324 324 324 323 321 314 313 315
331 333 332 333 332 331 332 330 329 328 328 328 330 328 325 324 325 328 329 330 329 329 329 328 328 328 327 327 328 327 326 325 325 325 324 324 323 322 318 317 319 319 319
330 333 333 333 332 333 330 330 329 328 329 328 328 329 325 324 325 328 329 329 329 329 328 328 328 327 327 327 328 327 326 325 325 325 325 324 324 321 318 324 323 320 319
329 332 333 331 332 333 331 329 331 331 329 332 328 327 325 326 326 328 329 328 328 327 327 327 327 326 326 328 326 326 326 326 326 325 325 324 323 322 322 325 324 322 321
329 332 333 333 333 333 332 330 332 331 330 329 329 328 327 327 326 328 329 328 328 327 327 327 326 326 326 326 327 326 326 326 325 325 325 325 324 324 324 324 325 326 325
328 331 333 332 332 331 334 332 331 331 330 329 329 328 327 325 326 326 329 329 329 327 324 324 324 325 325 326 326 326 325 325 325 325 326 325 321 319 322 322 324 326 326
328 330 332 332 333 331 333 333 330 331 333 333 330 329 328 327 326 327 328 329 328 326 325 325 325 326 324 326 326 326 325 324 325 325 325 323 322 321 323 323 325 326 326
328 329 332 332 332 332 331 332 333 332 333 333 333 329 329 328 327 326 328 328 327 326 324 324 324 323 322 325 324 324 324 324 323 322 320 323 322 323 323 322 321 322 323
328 329 330 332 332 332 330 328 329 330 329 329 332 331 330 328 327 327 328 327 326 325 323 322 324 321 318 321 324 325 326 324 324 325 326 326 325 325 324 320 318 317 317
328 329 329 332 331 332 331 327 326 327 328 326 326 328 329 331 327 327 328 328 328 327 326 327 326 327 323 320 320 326 327 326 326 325 323 322 321 318 319 319 318 318 317
326 328 329 329 331 332 329 329 326 325 324 326 326 324 325 328 328 326 328 329 329 328 329 328 327 328 327 325 323 323 325 325 326 326 324 324 322 319 319 319 319 318 317
327 327 327 326 329 329 332 330 329 327 325 323 325 325 325 324 322 319 326 327 328 328 327 329 329 329 328 327 325 324 324 325 325 324 325 324 323 320 320 319 319 318 317
328 327 326 328 326 327 327 330 331 330 328 325 321 322 324 325 323 320 317 324 327 327 326 327 329 326 324 324 326 326 324 325 325 325 324 323 323 322 320 320 319 318 318
329 327 328 328 326 326 325 326 328 330 331 328 326 325 317 316 319 318 318 314 314 321 321 320 320 322 323 323 322 320 321 323 324 324 325 325 324 323 322 321 320 320 319
329 329 328 327 329 326 325 325 325 326 327 330 328 326 326 324 316 313 313 315 315 314 320 323 322 321 321 323 324 323 322 320 319 321 322 324 324 323 323 322 321 321 320
331 330 331 329 327 329 326 324 324 325 325 325 325 326 326 325 324 323 319 315 313 312 314 319 322 321 320 320 320 321 323 323 323 322 321 321 322 323 323 323 322 322 321
332 333 332 331 330 328 328 325 324 324 325 324 324 324 324 324 323 323 323 322 319 318 318 318 315 317 322 322 321 320 319 318 320 322 322 322 322 322 322 322 323 322 321
333 332 333 334 331 331 329 327 325 324 324 324 324 324 324 324 323 323 323 323 322 321 322 322 321 321 319 319 323 323 322 320 319 318 319 321 321 321 322 321 321 321 321
331 333 332 334 334 331 330 329 327 326 325 324 325 325 324 324 324 324 323 323 323 323 322 322 323 323 323 323 321 321 323 322 322 320 319 318 317 319 320 320 320 320 320
Wind_Speed
13 11 9 5 5 4 3 8 6 10 3 4 4 5 4 3 3 4 6 5 5 3 3 3 4 4 4 9 18 20 19 21 25 18 18 17 22 26 41 40 43 44 32
13 11 7 5 7 7 4 8 5 11 6 7 4 5 3 1 1 4 3 3 3 5 5 4 2 8 8 14 17 17 19 14 21 31 28 27 33 41 48 47 40 34 31
13 11 7 8 6 3 8 9 11 9 8 6 3 5 3 3 3 5 4 3 3 3 3 4 7 8 11 15 16 14 14 17 20 30 37 44 47 47 43 41 39 33 29
14 12 7 6 3 6 6 13 11 8 8 8 4 5 4 4 4 4 4 7 4 3 2 5 6 5 9 9 11 13 15 24 36 43 41 42 43 45 37 39 34 30 29
14 11 6 6 6 5 6 13 13 10 8 9 7 4 5 5 4 4 5 6 4 5 6 6 7 7 6 11 15 16 17 38 50 44 44 43 40 39 38 36 35 31 25
13 11 5 10 8 7 7 12 14 13 11 6 4 5 9 3 6 8 9 8 6 6 8 8 10 9 11 14 15 16 22 48 50 48 44 42 41 39 34 30 28 32 28
14 12 8 13 10 6 8 10 12 13 15 10 8 6 6 7 11 11 10 8 8 6 11 12 12 12 14 17 19 20 35 44 44 48 44 39 35 32 34 33 31 29 27
15 11 10 13 10 10 9 10 9 11 11 11 10 8 12 10 11 12 11 9 8 11 13 11 13 14 15 17 25 28 39 42 41 39 33 35 29 31 28 23 26 21 21
15 11 17 12 11 10 9 10 9 9 10 11 13 8 11 10 10 11 11 10 12 14 13 12 14 15 14 18 27 33 38 42 32 31 29 33 33 29 26 26 23 24 23
15 16 16 14 10 12 7 9 8 6 6 11 15 11 12 9 9 12 12 10 13 14 10 9 13 14 15 18 22 33 34 37 33 30 28 31 24 24 29 20 22 22 22
16 16 13 12 14 10 7 11 10 8 8 12 12 12 9 9 9 12 13 11 12 11 14 18 16 17 18 20 22 26 30 31 34 34 35 32 27 27 25 20 18 11 16
18 17 19 18 13 10 8 13 12 9 11 10 11 10 9 8 9 15 15 15 17 15 21 23 22 19 18 18 22 30 29 34 38 34 28 28 28 26 22 20 22 17 16
20 20 19 17 15 13 10 11 11 11 9 10 12 10 9 9 13 17 19 22 19 15 24 24 21 18 16 16 24 27 31 33 35 30 27 25 25 22 23 21 18 14 14
23 23 19 20 16 11 15 10 8 11 12 11 12 11 10 9 17 19 25 22 21 17 21 19 18 18 16 21 26 29 28 30 27 24 22 20 21 23 21 18 18 19 17
25 25 23 21 19 15 14 15 12 10 11 15 10 11 13 11 16 22 26 24 21 22 22 21 20 19 25 28 27 24 22 18 19 18 18 20 21 21 21 20 21 20 22
28 26 25 23 22 19 19 18 14 13 9 10 15 9 8 8 15 23 20 19 21 22 21 23 19 20 25 30 25 24 22 22 20 21 23 24 24 24 23 21 21 21 22
31 28 25 24 23 22 21 19 20 17 16 11 15 10 10 11 10 21 21 19 18 20 18 17 17 18 17 22 25 19 17 24 21 24 23 23 20 20 22 22 21 20 19
32 29 27 27 25 24 23 22 20 22 21 21 17 16 12 13 11 14 22 23 21 21 18 18 19 19 22 20 19 22 21 21 28 23 24 23 22 23 25 26 24 25 23
34 31 29 27 25 23 24 23 23 21 20 21 25 22 19 17 16 16 21 24 25 25 25 22 19 19 21 23 24 25 25 26 26 28 24 25 25 27 28 29 29 26 24
33 31 31 26 26 25 25 25 24 25 23 25 26 30 29 27 26 26 26 27 25 24 26 25 20 20 23 24 24 26 27 27 28 28 29 31 29 28 30 29 28 27 27
34 32 30 27 26 27 26 27 26 25 27 28 29 26 30 34 33 32 31 32 31 27 24 22 25 23 21 24 25 27 28 27 29 32 32 32 32 31 30 30 29 29 27
34 30 34 33 27 28 29 28 28 27 26 27 29 32 25 21 32 35 35 35 34 34 30 27 27 25 26 27 27 27 29 30 31 31 32 31 32 32 30 31 31 29 27
34 33 33 35 34 27 30 30 29 29 29 28 27 30 31 31 29 27 29 33 34 36 37 35 34 31 31 30 32 32 32 33 33 32 33 35 35 33 30 32 31 30 29
36 32 34 36 34 33 31 34 32 32 31 30 30 31 32 31 33 32 30 26 29 30 28 28 33 39 34 33 33 33 35 35 35 35 33 34 34 33 32 30 31 32 30
30 34 31 34 38 33 32 34 36 33 34 33 32 33 33 34 33 34 33 31 30 33 35 33 31 29 29 40 35 35 35 34 35 34 35 32 33 33 32 32 32 31 35
18 23 33 26 34 37 35 32 37 39 35 37 36 35 35 36 35 35 35 32 35 36 35 37 38 36 34 32 30 38 37 37 37 34 33 34 33 30 32 33 32 36 38
Wind_Direction
170 171 184 196 188 225 222 178 170 146 168 149 121 120 125 150 165 162 182 216 209 234 249 191 275 252 177 157 160 167 163 179 159 155 157 153 158 163 161 152 150 149 145
165 176 196 160 202 232 176 166 153 148 139 127 101 82 78 232 325 152 150 153 248 204 131 129 184 129 132 149 151 149 157 162 157 147 152 155 164 162 155 151 148 147 143
166 180 175 180 219 181 146 150 129 134 149 149 159 129 188 232 205 146 203 189 153 178 188 162 159 155 141 142 143 136 153 154 167 157 149 144 141 148 143 140 141 148 149
168 177 184 189 165 147 168 150 138 152 157 160 179 173 213 216 138 133 115 113 115 117 176 148 160 147 159 162 163 162 155 164 156 145 147 144 144 151 148 150 143 145 149
174 181 187 167 155 131 140 157 139 157 151 159 170 208 150 127 151 121 112 127 138 145 143 138 145 150 143 163 156 157 158 151 144 139 143 147 150 151 148 150 151 156 152
176 171 150 160 151 137 156 151 153 156 159 171 183 151 107 195 132 109 119 115 133 135 143 138 128 121 119 138 155 157 161 155 153 147 152 154 154 158 156 157 156 150 142
170 159 147 166 151 146 137 146 159 167 170 167 151 144 162 137 116 112 116 107 120 119 126 130 132 123 122 136 153 153 160 158 157 153 154 157 151 153 157 153 149 154 154
168 157 157 166 147 149 156 151 152 171 171 166 137 147 134 117 117 117 103 101 126 128 120 122 132 132 135 138 165 161 161 161 160 159 155 151 151 147 149 147 152 153 153
168 167 158 148 154 151 169 162 168 165 168 158 152 167 148 130 118 118 106 105 116 121 121 127 134 136 133 134 160 161 160 162 166 158 148 147 141 149 145 147 160 162 157
167 164 167 158 167 166 163 162 157 167 182 172 169 162 164 154 142 129 120 131 124 128 133 137 135 132 139 145 160 165 166 163 159 157 156 157 156 153 159 161 166 170 171
165 161 162 136 157 161 142 144 127 117 122 155 170 176 170 165 157 150 132 142 145 134 126 138 132 129 125 149 154 164 163 162 158 156 159 161 160 162 167 168 169 183 179
166 164 158 152 157 166 149 154 143 120 113 126 139 157 174 181 170 164 148 144 139 133 131 131 128 122 121 137 154 154 153 157 164 164 159 166 168 171 174 177 190 195 215
170 168 170 160 179 160 158 153 143 136 141 140 137 139 141 154 156 155 143 142 141 152 136 123 123 127 126 134 151 156 152 152 164 162 165 170 175 174 185 192 202 214 212
173 173 174 164 178 167 158 165 144 159 166 152 151 160 138 137 151 156 151 146 150 151 153 150 140 134 133 133 146 157 158 160 162 165 176 179 178 185 198 206 208 212 214
176 178 180 175 179 172 163 169 180 197 205 180 164 143 148 157 163 159 163 164 157 152 147 148 150 147 143 143 145 146 154 167 172 168 165 183 193 202 215 223 219 224 228
179 180 183 184 182 181 184 179 183 195 194 149 170 155 142 138 155 149 152 167 163 160 154 150 144 155 159 162 162 163 165 186 183 186 189 201 209 218 220 216 218 222 227
184 185 188 188 189 188 190 194 193 188 197 185 180 174 175 184 154 161 153 161 165 164 162 157 165 173 176 181 177 174 185 190 191 202 202 213 219 208 206 222 219 225 228
192 192 192 190 194 193 194 195 200 203 198 197 192 199 195 188 186 187 174 173 180 185 177 192 189 192 195 199 199 196 197 208 195 203 213 220 215 212 211 223 228 224 232
198 195 194 198 198 196 198 198 198 203 203 202 204 202 200 197 199 198 201 198 197 198 195 203 214 210 208 209 210 212 213 212 216 209 213 222 227 214 220 227 232 237 233
204 199 200 202 198 201 200 200 204 202 201 199 214 211 205 206 204 204 205 206 208 215 214 209 208 220 221 218 217 220 220 221 223 231 233 228 232 237 231 229 237 233 233
198 203 207 197 204 203 202 205 206 207 204 202 209 226 220 217 215 215 215 214 212 209 222 225 219 212 225 227 227 226 226 227 229 230 236 237 237 231 237 235 234 238 236
197 204 207 208 205 208 207 208 209 210 211 209 207 220 232 226 227 227 228 227 226 222 211 220 228 226 223 227 228 231 231 233 232 234 233 236 238 235 235 239 235 237 239
200 203 209 214 209 213 213 210 211 212 214 215 212 217 226 227 229 233 237 240 238 235 230 221 219 228 231 230 233 233 233 232 232 235 236 237 236 237 238 238 238 236 234
202 207 210 214 216 213 217 214 213 215 215 216 215 221 227 228 231 236 241 247 243 244 241 238 234 229 225 232 233 236 238 239 237 236 239 239 238 239 241 239 242 239 236
211 211 217 217 212 220 216 220 215 215 217 217 219 219 227 232 231 234 238 241 240 235 239 248 251 248 243 232 234 238 240 243 241 241 237 239 242 238 236 237 238 241 240
233 220 221 230 222 216 219 220 222 217 218 221 218 219 222 232 237 237 237 236 232 230 235 238 242 248 253 255 247 237 237 243 245 246 243 241 236 241 241 239 236 237 237